Home   Weather   Olathe   Past weeks

Flag for USA Past Weather in Olathe, Kansas, USA — Yesterday and Last 2 Weeks

Now
59 °F

Overcast.


Feels Like: 57 °F
Forecast: 55 / 67 °F
Wind: 9 mph from Southeast

Location: Johnson County Executive Airport

Current Time: Feb 20, 2017 at 7:46:36 am

Latest Report: Feb 20, 2017 at 6:53 am


Visibility: 10 mi

Pressure: 29.81 "Hg

Humidity: 87%

Dew Point: 55 °F

Location of OlatheLocation

Past Weather in Olathe — Graph

°F

Olathe Temperature Yesterday

Maximum temperature yesterday: 73 °F (at 3:53 pm)
Minimum temperature yesterday: 42 °F (at 6:53 am)
Average temperature yesterday: 55 °F

High & Low Weather Summary for the Past Weeks

 TemperatureHumidityPressure
High73 °F (Feb 19, 3:53 pm)100% (Feb 6, 11:53 am)30.48 "Hg (Feb 6, 11:53 am)
Low16 °F (Feb 9, 2:53 am)21% (Feb 16, 2:53 pm)29.46 "Hg (Feb 7, 12:53 am)
Average45 °F66%29.94 "Hg
* Reported Feb 5 5:53 am — Feb 20 5:53 am, Olathe, Weather by CustomWeather, © 2017

Note: Actual official high and low records may vary slightly from our data, if they occured in-between our weather recording intervals... More about our weather records

Advertising

Olathe Weather History for the Previous 24 Hours

Scroll right to see more
 ConditionsComfort  
Time TempWeatherWind HumidityBarometerVisibility
5:53 am
Mon, Feb 20
61 °FOvercast.9 mph81%29.82 "Hg10 mi
4:53 am62 °FMostly cloudy.9 mph78%29.82 "Hg10 mi
3:53 am61 °FMostly cloudy.12 mph83%29.81 "Hg10 mi
2:53 am60 °FPassing clouds.13 mph86%29.84 "Hg10 mi
1:53 am59 °FPassing clouds.10 mph90%29.84 "Hg10 mi
12:53 am60 °FClear.15 mph86%29.86 "Hg10 mi
11:53 pm
Sun, Feb 19
61 °FClear.12 mph81%29.86 "Hg10 mi
10:53 pm60 °FClear.9 mph80%29.87 "Hg10 mi
9:53 pm59 °FClear.5 mph78%29.90 "Hg10 mi
8:53 pm60 °FClear.6 mph75%29.91 "Hg10 mi
7:53 pm63 °FClear.5 mph70%29.89 "Hg10 mi
6:53 pm64 °FClear.8 mph70%29.89 "Hg10 mi
5:53 pm69 °FSunny.8 mph61%29.87 "Hg10 mi
4:53 pm73 °FSunny.15 mph55%29.86 "Hg10 mi
3:53 pm73 °FSunny.15 mph55%29.87 "Hg10 mi
2:53 pm72 °FPassing clouds.18 mph57%29.88 "Hg10 mi
1:53 pm71 °FSunny.12 mph57%29.89 "Hg10 mi
12:53 pm68 °FSunny.13 mph63%29.92 "Hg10 mi
11:53 am65 °FSunny.12 mph68%29.94 "Hg10 mi
10:53 am62 °FSunny.13 mph75%29.97 "Hg10 mi
9:53 am50 °FSunny.10 mph100%29.97 "Hg10 mi
8:53 am50 °FFog.5 mph100%29.98 "Hg5 mi
8:40 am50 °FSunny.7 mph100%29.98 "Hg7 mi
Weather by CustomWeather, © 2017

See weather overviewHow to use our weather pages